| time (UTC) | temp C | wind direction | speed KPH | gust KPH | rain 1hr cm | rain 24hr cm | rain mn cm | humidity % | barometer mb |
| 20260505124530 | 15 | 0 | 0.0 | 4.8 | 0.00 | 0.00 | 0.00 | 93 | 1016.8 |
| 20260505123028 | 13 | 0 | 0.0 | 1.6 | 0.00 | 0.00 | 0.00 | 94 | 1016.7 |
| 20260505121532 | 12 | 0 | 0.0 | 0.0 | 0.00 | 0.00 | 0.00 | 93 | 1016.7 |
| 20260505120040 | 11 | 0 | 0.0 | 0.0 | 0.00 | 0.00 | 0.00 | 92 | 1016.6 |
| 20260505114529 | 11 | 0 | 0.0 | 0.0 | 0.00 | 0.00 | 0.00 | 91 | 1016.4 |
| 20260505113028 | 11 | 0 | 0.0 | 0.0 | 0.00 | 0.00 | 0.00 | 91 | 1016.3 |
| 20260505111532 | 11 | 0 | 0.0 | 0.0 | 0.00 | 0.00 | 0.00 | 90 | 1016.4 |
| 20260505101533 | 11 | 0 | 0.0 | 0.0 | 0.00 | 0.00 | 0.00 | 90 | 1016.1 |
| 20260505100033 | 11 | 0 | 0.0 | 0.0 | 0.00 | 0.00 | 0.00 | 89 | 1016.1 |
| 20260505094530 | 11 | 0 | 0.0 | 0.0 | 0.00 | 0.00 | 0.00 | 89 | 1016.0 |
| 20260505093030 | 11 | 0 | 0.0 | 0.0 | 0.00 | 0.00 | 0.00 | 89 | 1015.9 |
| 20260505091532 | 12 | 0 | 0.0 | 0.0 | 0.00 | 0.00 | 0.00 | 89 | 1015.6 |
| 20260505090031 | 12 | 0 | 0.0 | 0.0 | 0.00 | 0.00 | 0.00 | 90 | 1015.4 |
| 20260505084543 | 12 | 0 | 0.0 | 0.0 | 0.00 | 0.00 | 0.00 | 89 | 1015.2 |
| 20260505083050 | 12 | 0 | 0.0 | 0.0 | 0.00 | 0.00 | 0.00 | 89 | 1015.4 |
| 20260505081537 | 12 | 0 | 0.0 | 0.0 | 0.00 | 0.00 | 0.00 | 89 | 1015.2 |
| 20260505080040 | 12 | 0 | 0.0 | 0.0 | 0.00 | 0.00 | 0.00 | 89 | 1015.1 |
| 20260505074529 | 12 | 0 | 0.0 | 0.0 | 0.00 | 0.00 | 0.00 | 90 | 1015.2 |
| 20260505073040 | 13 | 0 | 0.0 | 0.0 | 0.00 | 0.00 | 0.00 | 89 | 1015.4 |
| 20260505071542 | 13 | 0 | 0.0 | 0.0 | 0.00 | 0.00 | 0.00 | 89 | 1015.4 |
| 20260505070041 | 13 | 0 | 0.0 | 0.0 | 0.00 | 0.00 | 0.00 | 89 | 1015.6 |
| 20260505064534 | 13 | 0 | 0.0 | 0.0 | 0.00 | 0.00 | 0.00 | 88 | 1015.7 |
| 20260505063038 | 13 | 0 | 0.0 | 0.0 | 0.00 | 0.00 | 0.00 | 88 | 1015.8 |
| 20260505061531 | 13 | 0 | 0.0 | 0.0 | 0.00 | 0.00 | 0.00 | 88 | 1016.0 |
| 20260505060051 | 13 | 0 | 0.0 | 0.0 | 0.00 | 0.00 | 0.00 | 88 | 1016.1 |
| 20260505054531 | 13 | 0 | 0.0 | 0.0 | 0.00 | 0.00 | 0.00 | 87 | 1016.3 |
| 20260505053029 | 14 | 0 | 0.0 | 0.0 | 0.00 | 0.00 | 0.00 | 87 | 1016.4 |
| 20260505051532 | 14 | 0 | 0.0 | 0.0 | 0.00 | 0.00 | 0.00 | 86 | 1016.7 |
| 20260505041537 | 15 | 0 | 0.0 | 0.0 | 0.00 | 0.00 | 0.00 | 82 | 1017.1 |
| 20260505040034 | 15 | 0 | 0.0 | 0.0 | 0.00 | 0.00 | 0.00 | 81 | 1016.9 |
| 20260505034532 | 16 | 0 | 0.0 | 0.0 | 0.00 | 0.00 | 0.00 | 80 | 1016.9 |
| 20260505033033 | 16 | 0 | 0.0 | 0.0 | 0.00 | 0.00 | 0.00 | 78 | 1016.8 |
| 20260505031532 | 17 | 0 | 0.0 | 0.0 | 0.00 | 0.00 | 0.00 | 76 | 1016.8 |
| 20260505030034 | 17 | 0 | 0.0 | 0.0 | 0.00 | 0.00 | 0.00 | 75 | 1016.7 |
| 20260505024533 | 17 | 0 | 0.0 | 0.0 | 0.00 | 0.00 | 0.00 | 74 | 1016.6 |
| 20260505023030 | 17 | 0 | 0.0 | 4.8 | 0.00 | 0.00 | 0.00 | 73 | 1016.5 |
| 20260505021531 | 18 | 0 | 0.0 | 4.8 | 0.00 | 0.00 | 0.00 | 71 | 1016.4 |
| 20260505020038 | 18 | 0 | 1.6 | 6.4 | 0.00 | 0.00 | 0.00 | 70 | 1016.2 |
| 20260505014541 | 19 | 0 | 0.0 | 3.2 | 0.00 | 0.00 | 0.00 | 68 | 1016.0 |
| 20260505013038 | 19 | 0 | 0.0 | 3.2 | 0.00 | 0.00 | 0.00 | 66 | 1015.9 |
| 20260505011536 | 20 | 0 | 0.0 | 6.4 | 0.00 | 0.00 | 0.00 | 64 | 1015.9 |
| 20260505010031 | 20 | 0 | 0.0 | 6.4 | 0.00 | 0.00 | 0.00 | 62 | 1015.8 |
| 20260505004540 | 21 | 0 | 0.0 | 9.7 | 0.00 | 0.00 | 0.00 | 60 | 1015.6 |
| 20260505003049 | 21 | 0 | 1.6 | 6.4 | 0.00 | 0.00 | 0.00 | 57 | 1015.5 |
| 20260505001530 | 21 | 94 | 4.8 | 14.5 | 0.00 | 0.00 | 0.00 | 54 | 1015.5 |
| 20260505000035 | 22 | 25 | 4.8 | 12.9 | 0.00 | 0.00 | 0.00 | 51 | 1015.3 |
| 20260504234531 | 23 | 124 | 1.6 | 9.7 | 0.00 | 0.00 | 0.00 | 47 | 1015.2 |
| 20260504233035 | 23 | 0 | 1.6 | 14.5 | 0.00 | 0.00 | 0.00 | 44 | 1015.2 |
| 20260504231532 | 24 | 0 | 1.6 | 9.7 | 0.00 | 0.00 | 0.00 | 40 | 1015.0 |
| 20260504230030 | 25 | 36 | 3.2 | 17.7 | 0.00 | 0.00 | 0.00 | 38 | 1014.7 |
| 20260504224529 | 25 | 81 | 4.8 | 19.3 | 0.00 | 0.00 | 0.00 | 37 | 1014.8 |
| 20260504223041 | 26 | 109 | 4.8 | 12.9 | 0.00 | 0.00 | 0.00 | 36 | 1014.7 |
| 20260504221530 | 26 | 105 | 4.8 | 16.1 | 0.00 | 0.00 | 0.00 | 36 | 1014.7 |
| 20260504220032 | 27 | 118 | 1.6 | 11.3 | 0.00 | 0.00 | 0.00 | 37 | 1014.7 |
| 20260504214532 | 27 | 119 | 3.2 | 11.3 | 0.00 | 0.00 | 0.00 | 36 | 1014.8 |
| 20260504213030 | 27 | 51 | 4.8 | 12.9 | 0.00 | 0.00 | 0.00 | 31 | 1014.6 |
| 20260504211544 | 28 | 134 | 1.6 | 6.4 | 0.00 | 0.00 | 0.00 | 28 | 1014.7 |
| 20260504210036 | 28 | 224 | 1.6 | 11.3 | 0.00 | 0.00 | 0.00 | 30 | 1014.8 |
| 20260504204532 | 27 | 233 | 1.6 | 11.3 | 0.00 | 0.00 | 0.00 | 28 | 1014.7 |
| 20260504203033 | 27 | 207 | 6.4 | 12.9 | 0.00 | 0.00 | 0.00 | 31 | 1014.9 |
| 20260504201531 | 27 | 62 | 1.6 | 9.7 | 0.00 | 0.00 | 0.00 | 30 | 1015.1 |
| 20260504200030 | 27 | 0 | 1.6 | 11.3 | 0.00 | 0.00 | 0.00 | 29 | 1015.1 |
| 20260504194531 | 27 | 238 | 0.0 | 17.7 | 0.00 | 0.00 | 0.00 | 29 | 1015.5 |
| 20260504193029 | 27 | 96 | 1.6 | 11.3 | 0.00 | 0.00 | 0.00 | 29 | 1015.6 |
| 20260504191534 | 27 | 71 | 0.0 | 11.3 | 0.00 | 0.00 | 0.00 | 32 | 1015.9 |
| 20260504190032 | 27 | 102 | 6.4 | 14.5 | 0.00 | 0.00 | 0.00 | 30 | 1016.1 |
| 20260504184543 | 27 | 0 | 1.6 | 8.0 | 0.00 | 0.00 | 0.00 | 32 | 1016.3 |
| 20260504183032 | 26 | 235 | 3.2 | 11.3 | 0.00 | 0.00 | 0.00 | 37 | 1016.6 |
| 20260504181535 | 26 | 37 | 3.2 | 14.5 | 0.00 | 0.00 | 0.00 | 35 | 1016.6 |
| 20260504180033 | 26 | 51 | 4.8 | 11.3 | 0.00 | 0.00 | 0.00 | 34 | 1016.9 |
| 20260504174533 | 26 | 123 | 0.0 | 11.3 | 0.00 | 0.00 | 0.00 | 34 | 1016.8 |
| 20260504173031 | 25 | 290 | 6.4 | 12.9 | 0.00 | 0.00 | 0.00 | 35 | 1017.1 |
| 20260504171532 | 25 | 157 | 3.2 | 11.3 | 0.00 | 0.00 | 0.00 | 35 | 1017.3 |